EW3286 Weather Reports


Display with metric or nautical units.
time (UTC)temp
F
wind
direction
speed
MPH
gust
MPH
rain 1hr
in
rain 24hr
in
rain mn
in
humidity
%
barometer
mb
20260506081555 31 211 0.0 0.0 0.00 0.00 0.00 72 1016.4
20260506080106 31 211 0.0 0.0 0.00 0.00 0.00 70 1016.3
20260506073105 32 232 0.0 0.0 0.00 0.00 0.00 71 1016.3
20260506071552 32 232 0.0 0.0 0.00 0.00 0.00 70 1016.1
20260506061540 34 233 0.0 0.0 0.00 0.00 0.00 66 1016.0
20260506044537 36 243 0.0 0.0 0.00 0.00 0.00 62 1015.5
20260506043027 35 222 0.0 0.0 0.00 0.00 0.00 62 1015.6
20260506041538 36 221 0.0 0.0 0.00 0.00 0.00 59 1015.5
20260506040029 37 221 0.0 0.0 0.00 0.00 0.00 57 1015.6
20260506034530 39 221 0.0 0.0 0.00 0.00 0.00 54 1015.4
20260506033022 40 221 0.0 0.0 0.00 0.00 0.00 53 1015.3
20260506031521 41 216 0.0 0.0 0.00 0.00 0.00 51 1015.2
20260506030022 42 252 0.0 0.0 0.00 0.00 0.00 49 1015.1
20260506024519 43 251 0.0 0.0 0.00 0.00 0.00 48 1014.8
20260506023019 44 236 0.0 0.0 0.00 0.00 0.00 47 1014.5
20260506021514 44 267 0.0 0.0 0.00 0.00 0.00 47 1014.2
20260506020010 45 240 0.0 0.0 0.00 0.00 0.00 46 1014.0
20260506014514 45 231 0.0 0.0 0.00 0.00 0.00 44 1013.9
20260506013009 46 219 0.0 0.0 0.00 0.00 0.00 44 1013.9
20260506011521 46 221 0.0 0.0 0.00 0.00 0.00 42 1013.6
20260506010005 46 220 0.0 0.0 0.00 0.00 0.00 41 1013.5
20260506004515 47 238 0.0 0.0 0.00 0.00 0.00 41 1013.3
20260506003003 47 238 0.0 0.0 0.00 0.00 0.00 40 1013.2
20260506001502 47 200 0.0 0.0 0.00 0.00 0.00 40 1013.0
20260505234601 47 224 0.0 0.0 0.00 0.00 0.00 39 1012.7
20260505233058 48 230 0.0 0.0 0.00 0.00 0.00 37 1012.6
20260505231558 48 238 0.0 0.0 0.00 0.00 0.00 38 1012.5
20260505230100 48 218 0.0 0.0 0.00 0.00 0.00 38 1012.4
20260505224556 48 191 0.0 0.0 0.00 0.00 0.00 39 1012.4
20260505223057 48 252 0.0 0.0 0.00 0.00 0.00 39 1012.4
20260505221604 49 198 0.0 0.0 0.00 0.00 0.00 40 1012.3
20260505220104 49 196 0.0 0.0 0.00 0.00 0.00 39 1012.2
20260505214555 49 218 0.0 0.0 0.00 0.00 0.00 40 1012.2
20260505213051 49 232 0.0 0.0 0.00 0.00 0.00 43 1012.3
20260505211551 49 202 0.0 0.0 0.00 0.00 0.00 42 1012.4
20260505210053 48 180 0.0 0.0 0.00 0.00 0.00 43 1012.4
20260505204557 49 193 0.0 0.0 0.00 0.00 0.00 42 1012.4
20260505203048 49 202 0.0 0.0 0.00 0.00 0.00 41 1012.4
20260505201548 49 200 0.0 0.0 0.00 0.00 0.00 40 1012.4
20260505200043 49 195 0.0 0.0 0.00 0.00 0.00 40 1012.4
20260505194541 49 228 0.0 0.0 0.00 0.00 0.00 42 1012.5
20260505193043 48 195 0.0 0.0 0.00 0.00 0.00 41 1012.5
20260505191537 48 175 0.0 0.0 0.00 0.00 0.00 47 1012.4
20260505190034 47 224 0.0 0.0 0.00 0.00 0.00 45 1012.5
20260505184532 47 224 0.0 0.0 0.00 0.00 0.00 44 1012.5
20260505183045 48 223 0.0 0.0 0.00 0.00 0.00 46 1012.5
20260505181531 47 212 0.0 0.0 0.00 0.00 0.00 44 1012.5
20260505180029 48 246 0.0 0.0 0.00 0.00 0.00 45 1012.5
20260505174525 47 235 0.0 0.0 0.00 0.00 0.00 46 1012.6
20260505173024 47 190 0.0 0.0 0.00 0.00 0.00 45 1012.6
20260505171522 47 254 0.0 0.0 0.00 0.00 0.00 47 1012.6
20260505170021 47 208 0.0 0.0 0.00 0.00 0.00 47 1012.5
20260505164519 46 183 0.0 0.0 0.00 0.00 0.00 48 1012.3
20260505163017 46 202 0.0 0.0 0.00 0.00 0.00 48 1012.4
20260505161514 46 232 0.0 0.0 0.00 0.00 0.00 50 1012.3
20260505153007 45 180 0.0 0.0 0.00 0.00 0.00 51 1012.2
20260505151508 45 219 0.0 0.0 0.00 0.00 0.00 52 1012.2
20260505124548 39 250 0.0 0.0 0.00 0.00 0.00 68 1011.2
20260505123038 38 223 0.0 0.0 0.00 0.00 0.00 71 1010.8
20260505121537 36 233 0.0 0.0 0.00 0.00 0.00 76 1010.7
20260505120046 35 273 0.0 0.0 0.00 0.00 0.00 77 1010.6
20260505114531 34 220 0.0 0.0 0.00 0.00 0.00 76 1010.3
20260505113030 34 220 0.0 0.0 0.00 0.00 0.00 75 1010.1
20260505111524 34 221 0.0 0.0 0.00 0.00 0.00 73 1009.9
20260505101517 35 204 0.0 0.0 0.00 0.00 0.00 72 1009.2
20260505100015 35 215 0.0 0.0 0.00 0.00 0.00 71 1009.2
20260505094513 36 215 0.0 0.0 0.00 0.00 0.00 68 1009.3
20260505093010 36 216 0.0 0.0 0.00 0.00 0.00 67 1009.2
20260505091512 37 215 0.0 0.0 0.00 0.00 0.00 66 1009.1
20260505090005 37 223 0.0 0.0 0.00 0.00 0.00 65 1009.0
20260505084508 38 192 0.0 0.0 0.00 0.00 0.00 64 1009.0
20260505083105 38 193 0.0 0.0 0.00 0.00 0.00 63 1009.0